SCP
0 0 0 0 0 0 0 0 0 0 0 0 0 0 -0 0 0 0 0 0 0 0 0 -0 -0 0 0 0 0 0 0 0 0 0 0 0 0 0 0 0 0 0 0
0 0 0 0 0 0 0 0 0 0 0 0 0 0 -0 0 0 0 0 0 0 0 0 -0 -0 -0 0 0 0 0 0 0 0 0 0 0 0 0 0 0 0 0 0
0 0 0 0 0 0 0 0 0 0 0 0 0 0 -0 0 0 0 0 0 0 0 0 0 -0 -0 0 0 0 0 0 0 0 0 0 0 0 0 0 0 0 0 0
0 0 0 0 0 0 0 0 0 0 0 0 0 0 0 0 0 0 0 0 0 0 0 0 -0 -0 -0 0 0 0 0 0 0 0 0 0 0 0 0 0 0 0 0
0 0 0 0 0 0 0 0 0 0 0 0 0 0 0 0 0 0 0 0 0 0 0 0 0 -0 -0 -0 -0 -0 -0 -0 0 0 0 0 0 0 0 0 0 0 0
0 0 0 0 0 0 0 0 0 0 0 0 0 0 0 0 0 0 -0 -0 -0 0 0 0 0 0 0 -0 -0 -0 -0 -0 -0 0 0 0 0 0 0 0 0 0 0
0 0 0 0 0 0 0 0 0 0 0 0 0 0 0 0 0 -0 -0 -0 -0 -0 0 0 0 0 0 0 0 -0 -0 0 -0 -0 0 -0 0 0 0 0 0 0 0
0 0 0 0 0 0 0 0 0 0 0 0 0 0 0 0 0 0 0 0 0 0 0 0 0 0 0 0 0 0 0 0 0 -0 -0 -0 0 0 0 0 0 0 0
0 0 0 0 0 0 0 0 0 0 0 0 0 0 0 0 0 0 0 0 0 0 0 0 0 0 0 0 0 0 0 0 0 0 -0 0 0 0 0 0 0 0 0
0 0 0 0 0 0 0 0 0 0 0 0 0 0 0 0 0 0 0 0 0 0 0 0 0 0 0 0 0 0 0 0 0 0 -0 0 -0 -0 -0 0 0 0 0
0 0 0 0 0 0 0 0 0 0 0 0 0 0 0 0 0 0 0 0 0 -0 0 0 0 0 0 0 0 0 0 0 0 -0 -0 -0 -0 -0 -0 0 0 0 0
0 0 0 0 0 0 0 0 0 0 0 0 0 0 0 0 0 0 0 0 0 0 0 0 0 0 0 0 0 0 0 0 0 0 0 0 -0 0 0 0 0 0 0
0 0 0 0 0 0 0 0 0 0 0 0 0 0 0 0 0 0 0 0 0 0 0 0 0 0 0 0 0 0 0 0 0 0 0 0 -0 -0 -0 0 0 0 0
0 0 0 0 0 0 0 0 0 0 0 0 0 0 0 0 0 0 0 0 0 0 0 0 0 0 0 0 0 0 0 0 0 0 0 0 0 0 0 0 0 0 0
0 0 0 0 0 0 0 0 0 0 0 0 0 0 0 0 0 0 0 0 0 0 0 0 0 0 0 0 0 0 0 0 0 0 0 0 0 0 0 0 0 0 0
0 0 0 0 0 0 0 0 0 0 0 0 0 0 0 0 0 0 0 0 0 0 0 0 0 0 0 0 0 0 0 0 0 0 0 0 0 0 0 0 0 0 0
0 0 0 0 0 0 0 0 0 0 0 0 0 0 0 0 0 0 0 0 0 0 0 0 0 0 0 0 0 0 0 0 0 0 0 0 0 0 0 0 0 0 0
0 0 0 0 0 0 0 0 0 0 0 0 0 0 0 0 0 0 0 0 0 0 0 0 0 0 0 0 0 0 0 0 0 0 0 0 0 0 0 0 0 0 -0
0 0 0 0 0 0 0 0 0 0 0 0 0 0 0 0 0 0 0 0 0 0 0 0 0 0 0 0 0 0 0 0 0 0 0 0 0 0 0 0 0 0 -0
0 0 0 0 0 0 0 0 0 0 0 0 0 0 0 0 0 0 0 0 0 0 0 0 0 0 0 0 0 0 0 0 0 0 0 0 0 0 0 0 0 0 0
0 0 0 0 0 0 0 0 0 0 0 0 0 0 0 0 0 0 0 0 0 0 0 0 0 0 0 0 0 0 0 0 0 0 0 0 0 0 0 0 0 0 0
0 0 0 0 0 0 0 0 0 0 0 0 0 0 0 0 0 0 0 0 0 0 0 0 0 0 0 0 0 0 0 0 0 0 0 0 0 0 0 0 0 0 0
0 0 0 0 0 0 0 0 0 0 0 0 0 0 0 0 0 0 0 0 0 0 0 0 0 0 0 0 0 0 0 0 0 0 0 0 0 0 0 0 0 0 0
0 0 0 0 0 0 0 0 0 0 0 0 0 0 0 0 0 0 0 0 0 0 0 0 0 0 0 0 0 0 0 0 0 0 0 0 0 0 0 0 0 0 0
0 0 0 0 0 0 0 0 0 0 0 0 0 0 0 0 0 0 0 0 0 0 0 0 0 0 0 0 0 0 0 0 0 0 0 0 0 0 0 0 0 0 0
0 0 0 0 0 0 0 0 0 0 0 0 0 0 0 0 0 0 0 0 0 0 0 0 0 0 0 0 0 0 0 0 0 0 0 0 0 0 0 0 0 0 0
Wind_Speed
5 5 5 6 6 5 6 6 5 4 4 3 3 2 2 2 2 2 3 4 3 3 4 3 3 3 3 3 3 3 4 3 2 4 3 4 4 4 3 3 3 4 4
4 5 5 5 6 6 6 6 6 5 4 3 2 2 2 1 1 2 3 4 3 3 3 3 3 3 3 4 3 3 2 2 1 3 3 2 4 4 4 3 3 3 3
9 7 6 6 6 7 7 7 6 5 4 4 3 3 3 3 2 3 2 2 3 3 3 4 3 3 3 3 2 2 3 2 1 1 3 3 2 1 3 3 3 3 3
9 8 8 7 7 7 6 7 6 5 4 5 4 4 3 2 1 0 1 2 3 3 3 3 3 3 3 3 2 2 2 3 1 1 1 2 4 3 1 3 3 3 3
10 10 9 8 7 6 7 6 6 5 5 5 5 5 3 2 1 1 1 2 3 3 3 3 3 3 2 2 3 3 3 2 2 1 1 2 2 2 3 0 2 3 2
10 10 8 7 6 5 6 6 6 4 4 5 5 5 5 4 3 2 1 1 1 2 2 3 3 2 2 2 2 3 4 3 3 2 2 2 2 2 2 2 0 1 2
11 10 9 8 7 7 7 6 7 5 4 4 4 4 5 5 4 3 2 2 1 1 1 1 2 2 2 2 3 3 3 3 3 3 2 2 1 2 2 3 1 0 1
11 11 11 10 9 9 8 7 7 6 5 4 4 3 4 3 2 3 3 3 2 1 1 1 2 2 2 3 3 2 2 2 3 3 2 2 1 2 2 3 3 2 2
12 12 11 10 10 9 8 9 8 6 5 5 4 3 4 3 3 3 3 2 2 2 2 2 2 2 2 3 3 2 2 2 2 2 2 2 1 1 2 2 3 4 2
12 12 11 10 9 9 7 7 8 7 6 5 4 3 3 3 3 3 3 3 2 2 2 2 2 2 2 3 3 2 2 3 2 1 2 2 1 1 2 2 1 2 3
12 12 11 10 9 8 8 7 7 6 5 5 4 4 3 3 3 3 3 3 2 2 2 2 2 2 2 2 3 2 2 3 2 1 2 2 1 2 1 2 2 2 2
12 11 11 10 9 9 8 8 8 7 6 5 5 4 4 4 3 3 2 3 3 2 3 3 3 2 2 2 3 2 2 2 2 1 2 1 1 2 1 2 2 1 2
10 10 9 10 10 10 9 8 8 8 6 6 5 4 4 4 4 3 3 2 2 2 2 3 3 2 2 2 2 2 2 2 1 1 2 1 2 1 1 2 1 1 1
11 11 10 10 10 10 10 9 8 8 7 6 6 5 5 5 4 4 3 3 3 3 3 3 3 3 2 2 2 3 2 2 1 1 1 1 2 2 2 1 1 1 2
10 12 12 11 10 9 9 9 8 8 8 7 7 6 5 4 4 3 3 2 3 3 3 3 2 2 2 2 3 3 3 2 2 1 1 1 2 3 2 2 1 2 2
11 12 12 11 11 11 10 9 9 8 8 8 8 6 5 4 4 4 3 3 2 2 3 3 3 2 2 4 5 4 3 2 2 1 0 1 1 2 3 3 3 3 3
10 11 11 11 11 12 11 11 10 8 9 8 7 7 6 5 5 4 3 3 3 2 3 3 3 3 3 4 5 6 4 3 2 2 1 0 1 1 1 2 3 2 2
9 10 10 10 10 9 9 8 8 8 9 8 8 7 6 6 5 4 4 4 3 3 3 3 3 2 3 5 5 5 3 2 2 2 2 2 1 1 2 2 1 1 1
8 8 9 9 9 9 9 9 8 8 8 8 8 8 7 7 6 5 5 4 3 3 3 3 3 3 3 4 5 5 2 1 1 1 1 2 2 2 2 2 1 1 2
6 7 7 7 8 8 9 10 9 9 9 9 9 8 7 7 7 6 5 3 3 3 3 2 3 4 3 4 5 6 3 2 1 1 1 2 2 2 2 2 2 2 3
6 7 7 7 8 9 10 10 9 10 10 8 7 7 7 7 6 5 4 3 3 3 2 2 2 2 3 4 5 6 3 3 2 2 2 2 3 3 3 3 3 4 2
6 7 7 6 5 8 10 10 9 8 7 7 7 7 6 6 5 5 4 4 4 3 2 2 1 1 2 2 3 5 5 4 3 2 2 2 2 2 2 1 1 2 0
6 6 7 6 4 6 9 9 8 7 7 7 7 6 5 4 5 5 5 3 3 3 2 2 2 2 1 2 3 4 5 4 2 2 2 2 1 1 1 2 1 0 0
6 6 7 7 5 5 6 7 7 8 8 7 6 6 6 4 4 3 4 4 4 4 3 3 3 2 1 1 1 2 2 3 2 1 1 0 1 0 1 1 1 0 1
5 6 7 7 6 6 5 5 7 8 8 7 6 5 5 5 4 3 2 4 4 6 6 5 4 3 3 4 5 4 3 3 3 2 1 1 1 0 0 1 1 1 1
6 6 7 6 6 6 5 5 6 8 9 6 6 5 4 4 4 4 2 2 1 3 5 5 5 3 4 3 4 5 4 4 5 4 1 1 1 2 2 1 1 1 1
Wind_Direction
188 167 155 145 138 133 134 135 131 129 118 103 98 86 60 34 32 34 46 51 54 60 70 71 59 65 76 77 84 91 76 60 74 80 49 22 30 43 39 42 50 47 53
189 174 155 152 151 153 150 144 147 144 134 132 134 132 127 99 56 19 31 39 50 52 72 77 73 72 81 71 68 87 91 59 59 107 95 40 9 11 22 25 49 48 48
186 179 167 167 159 157 160 158 160 148 139 131 109 84 62 41 27 22 19 19 48 59 75 82 84 76 83 87 77 95 113 116 26 87 135 137 176 341 355 14 31 41 48
185 179 172 171 168 170 163 156 156 150 143 132 126 128 129 141 195 202 23 26 42 57 74 83 85 82 81 86 85 89 99 115 96 29 53 128 146 137 42 349 3 30 45
185 181 177 176 172 168 160 158 152 152 148 138 137 133 135 155 144 98 72 46 32 46 70 80 81 83 84 88 86 86 84 96 112 110 88 74 68 94 127 121 340 0 1
185 182 177 166 161 156 152 152 149 156 152 143 141 143 146 145 133 128 115 59 31 26 50 77 78 86 88 93 94 94 92 93 95 91 96 117 120 131 124 141 190 321 321
179 179 175 169 165 159 158 158 153 160 162 151 153 154 155 153 155 162 157 137 91 33 18 67 90 95 104 105 99 89 82 88 94 99 101 107 129 142 133 127 143 103 326
180 181 181 176 171 169 164 161 160 164 166 157 157 152 150 148 156 160 158 161 172 190 174 113 105 108 109 106 104 96 93 89 95 97 102 99 100 121 134 142 137 99 4
182 184 183 179 175 172 170 168 165 164 169 162 153 152 151 149 152 154 150 157 175 175 151 135 110 100 103 105 102 92 94 94 90 98 98 98 86 96 105 125 142 141 135
182 183 183 182 178 174 171 166 163 165 165 160 162 160 159 156 149 140 150 162 171 153 133 126 114 92 85 94 96 90 100 99 82 92 92 83 80 80 91 115 124 130 144
182 180 181 180 174 170 167 165 167 162 162 165 162 158 161 154 141 144 162 164 151 142 142 141 124 106 90 92 98 100 108 105 87 81 99 89 88 83 75 91 98 104 121
181 178 176 172 171 173 173 171 171 169 173 171 161 166 163 151 148 155 162 152 144 142 145 141 131 128 117 109 109 107 108 116 111 106 102 90 92 81 71 88 98 116 135
174 171 171 173 176 178 178 176 177 179 176 165 161 164 165 161 165 173 172 160 150 139 130 131 140 145 138 127 129 123 114 122 135 133 133 148 115 100 93 96 96 100 99
172 171 175 180 180 180 179 180 183 181 172 165 165 172 179 177 177 175 173 173 163 152 152 152 158 156 146 135 133 124 112 100 98 111 128 149 152 157 151 125 132 127 100
173 177 180 182 180 180 180 180 182 180 173 168 173 185 187 180 172 169 177 171 164 169 166 150 147 151 147 148 140 132 122 115 99 73 78 114 122 124 134 127 147 134 117
183 183 182 181 182 184 183 182 182 179 172 174 182 183 178 174 177 182 177 161 161 162 151 154 153 158 171 155 151 143 136 135 130 124 87 57 84 91 98 101 114 129 137
187 185 186 186 187 188 184 184 184 176 173 178 180 179 176 177 183 174 161 166 172 159 161 172 162 175 189 165 155 149 142 144 150 155 155 109 71 109 97 68 62 60 88
185 185 186 186 185 183 180 175 170 171 175 178 181 180 177 181 179 168 173 183 175 167 175 183 179 181 199 176 160 151 139 140 160 179 185 182 209 158 131 107 57 0 328
184 186 184 180 177 175 172 164 168 171 173 180 183 182 178 179 176 179 186 186 171 172 181 180 179 186 219 193 173 151 139 143 199 226 185 180 197 223 157 133 153 315 312
171 170 167 165 169 175 165 162 171 174 183 189 187 181 177 177 181 186 184 176 167 182 182 188 191 191 212 208 192 170 153 165 215 277 268 224 217 230 195 170 176 240 275
162 157 153 162 175 169 161 167 174 188 193 184 175 173 175 179 179 176 172 165 162 165 180 195 216 211 219 219 208 190 174 184 198 228 253 255 244 238 217 190 192 225 233
151 152 152 161 165 163 163 170 185 190 172 161 165 171 175 177 169 164 171 166 161 165 185 193 250 270 250 224 214 201 196 186 184 215 230 235 236 232 216 211 245 253 256
157 153 151 150 151 160 163 171 184 168 154 154 163 166 164 167 165 169 173 167 165 168 182 179 208 257 268 250 228 210 203 200 189 211 222 230 248 268 270 285 296 313 155
158 152 144 146 157 165 166 172 168 157 150 156 163 163 161 162 159 162 168 167 175 178 183 190 208 232 255 259 234 207 204 199 202 217 252 311 350 328 310 335 330 284 206
155 151 153 157 163 159 157 161 156 150 151 155 157 155 156 154 149 149 171 183 198 191 188 198 197 195 225 235 206 179 184 186 188 150 97 69 51 21 323 313 305 301 316
151 149 151 151 154 149 148 154 155 151 151 153 159 159 154 148 143 138 107 38 140 182 191 194 189 208 213 207 186 185 185 175 153 129 138 190 209 224 236 246 271 275 264